RH
22 23 23 24 26 27 27 27 26 26 27 28 30 30 30 28 27 27 27 30 32 31 29 28 27 25 23 24 24 24 28 33 28 26 20 20 20 17 15 15 15 17 21 27 34
25 22 21 22 21 21 21 21 22 24 27 32 32 35 36 34 35 37 36 35 35 33 30 27 27 28 26 26 26 26 32 27 23 22 23 22 21 19 19 18 15 16 17 24 30
27 33 31 31 30 26 22 25 30 34 35 34 36 41 43 41 41 44 37 36 37 38 36 34 33 30 29 28 27 30 31 27 24 23 24 23 21 21 20 18 15 14 15 17 25
40 45 41 46 47 43 45 50 48 43 42 43 44 44 45 46 46 47 43 42 44 44 40 38 34 33 32 32 31 31 30 28 27 27 26 26 25 23 21 16 15 14 13 16 18
58 62 64 67 66 63 57 50 45 43 41 41 45 47 50 52 52 51 49 47 48 48 43 36 35 34 33 32 32 34 32 31 31 31 31 31 27 26 19 16 17 14 12 13 16
62 62 61 61 61 60 56 52 44 40 43 40 42 48 53 52 53 53 53 54 52 51 44 37 41 38 34 36 37 34 34 32 31 32 35 34 25 28 13 20 18 17 13 9 11
58 59 58 55 57 57 52 44 37 37 37 36 40 45 49 44 49 55 57 52 53 51 40 38 40 37 37 38 38 37 39 36 31 37 44 39 29 27 17 21 21 19 16 14 7
54 54 51 48 46 52 48 42 38 34 36 34 32 37 39 44 50 50 52 54 54 52 40 36 39 37 37 39 41 42 42 43 31 39 42 43 29 24 24 25 25 24 20 18 15
47 42 39 39 42 43 43 41 40 37 34 34 35 39 39 44 48 51 52 54 54 54 42 35 39 42 45 48 47 43 46 45 38 39 44 46 34 27 31 36 32 31 25 22 22
44 40 33 30 42 48 42 38 40 39 38 37 40 41 41 45 49 51 53 54 54 50 42 40 44 49 47 47 47 43 50 43 42 41 53 54 38 32 44 49 40 37 34 32 27
36 35 34 33 31 31 28 28 32 36 36 31 32 36 40 45 47 51 52 54 52 52 47 47 49 46 36 41 40 42 50 53 40 41 55 60 46 42 46 56 54 53 48 45 40
34 31 30 30 31 30 31 33 31 30 33 33 37 42 45 50 52 54 54 54 57 57 58 57 58 44 46 49 54 55 57 52 42 42 53 55 43 49 48 63 70 65 59 54 52
35 31 31 32 30 34 35 39 39 40 42 36 39 41 45 52 55 53 54 61 64 68 66 64 58 54 54 58 62 61 60 55 55 47 54 59 48 42 46 65 71 75 74 70 64
35 36 35 35 37 36 39 43 39 43 50 43 52 50 49 52 53 55 60 68 74 73 70 68 64 65 63 62 65 69 54 59 60 63 65 73 70 41 56 68 75 83 83 71 62
40 39 39 37 39 40 42 39 45 56 62 54 56 56 58 57 66 67 67 69 72 72 74 67 64 67 72 65 66 65 61 67 67 70 72 62 86 54 75 78 74 85 77 55 44
42 43 42 39 37 41 45 44 55 68 67 65 64 65 67 65 64 67 69 69 72 72 70 65 64 66 66 68 72 68 75 74 72 77 77 58 77 57 85 75 68 84 78 64 48
45 46 45 38 36 37 41 50 65 73 66 76 74 73 72 70 69 71 75 75 75 75 71 63 59 62 63 72 71 78 83 83 81 85 75 58 70 71 73 71 74 88 94 75 60
45 44 46 38 36 33 39 51 62 56 64 62 60 63 74 72 72 79 77 71 69 74 80 81 69 58 65 57 58 65 80 91 88 77 66 65 79 64 64 68 71 92 98 89 79
39 38 41 39 38 36 42 54 56 61 55 52 52 61 69 80 77 70 76 76 81 85 92 91 81 66 59 53 64 68 73 80 91 83 84 72 65 53 56 56 67 83 97 96 84
44 40 39 38 38 42 48 50 57 58 60 58 57 59 69 70 62 71 76 76 88 90 87 89 84 69 56 55 52 56 74 90 97 94 81 67 69 67 57 60 65 76 96 91 90
41 42 38 40 41 46 51 53 55 59 67 66 68 73 70 70 74 75 78 78 84 92 93 92 89 75 64 50 52 70 73 88 89 93 91 86 69 62 62 67 66 81 96 98 90
40 41 39 43 46 50 52 52 56 64 71 72 69 74 81 79 84 86 86 88 90 90 86 85 85 79 64 46 73 72 86 86 86 76 76 79 66 58 59 59 64 74 90 93 97
41 37 42 45 48 48 47 55 63 61 64 76 74 79 83 89 96 88 84 87 91 88 90 77 79 77 63 51 57 53 52 67 72 77 79 83 60 48 56 55 61 69 81 92 96
32 38 42 40 45 46 49 54 60 60 62 64 76 78 71 80 87 97 88 85 83 86 88 90 79 70 72 64 60 62 54 51 67 76 67 68 57 49 59 64 63 70 75 81 94
33 40 39 38 44 51 53 59 63 64 64 68 72 79 82 82 82 81 72 73 78 86 89 91 79 73 70 67 64 63 58 53 52 53 69 53 59 66 64 71 64 68 70 76 84
28 32 40 41 44 47 52 52 62 69 73 79 76 76 81 88 94 90 83 80 72 71 87 89 78 74 72 63 57 59 48 52 56 58 65 67 72 74 67 69 72 68 73 74 77
29 33 38 38 41 47 47 53 60 64 66 74 72 72 75 86 93 87 84 83 88 92 79 77 80 80 72 63 63 56 54 61 64 73 80 76 79 76 74 73 74 76 76 78 80